User: anonymous   Login
Location: St. Malo Provincial Park
(49.3214°N, 96.9305°W)
Time: 12:52:49
(UTC-05:00)
Language:

Iridium 6 - Orbit

View from above orbital plane
View from above orbital plane
View from above satellite
View from above satellite

Ground track
Ground track

The orbit data is extracted from the following two-line orbital elements,

1 24794U 97020C   15147.46814182  .00000223  00000-0  72432-4 0  9995
2 24794 086.3961 273.0680 0002119 093.7385 266.4053 14.34210284945457
Epoch (UTC): 27 May 2015 11:14:07
Eccentricity: 0.0002119
inclination: 86.3961°
perigee height: 776 km
apogee height: 779 km
right ascension of ascending node: 273.0680°
argument of perigee: 93.7385°
revolutions per day: 14.34210284
mean anomaly at epoch: 266.4053°
orbit number at epoch: 94545

The dashed part of the orbit path shows where the satellite is in the earth's shadow,  

DLR